Time,TemperatureF,DewpointF,PressureIn,WindDirection,WindDirectionDegrees,WindSpeedMPH,WindSpeedGustMPH,Humidity,HourlyPrecipIn,Conditions,Clouds,dailyrainin,SoftwareType,DateUTC
2013-01-11 00:07:00,43.1,31.0,30.52,NE,51,1.0,1.0,62,0.00,,,0.00,Wunderground v.1.15,2013-01-11 05:07:00,
2013-01-11 00:12:00,43.0,30.9,30.52,NE,54,1.0,3.0,62,0.00,,,0.00,Wunderground v.1.15,2013-01-11 05:12:00,
2013-01-11 00:17:00,43.0,30.9,30.52,ESE,102,1.0,3.0,62,0.00,,,0.00,Wunderground v.1.15,2013-01-11 05:17:00,
2013-01-11 00:23:00,42.8,31.1,30.52,ESE,102,1.0,2.0,63,0.00,,,0.00,Wunderground v.1.15,2013-01-11 05:23:00,
2013-01-11 00:29:00,42.6,30.9,30.52,ESE,102,0.0,2.0,63,0.00,,,0.00,Wunderground v.1.15,2013-01-11 05:29:00,
2013-01-11 00:34:00,42.5,30.8,30.52,ESE,102,1.0,2.0,63,0.00,,,0.00,Wunderground v.1.15,2013-01-11 05:34:00,
2013-01-11 00:39:00,42.5,30.8,30.52,ENE,67,1.0,2.0,63,0.00,,,0.00,Wunderground v.1.15,2013-01-11 05:39:00,
2013-01-11 00:44:00,42.4,30.7,30.52,ENE,67,0.0,1.0,63,0.00,,,0.00,Wunderground v.1.15,2013-01-11 05:44:00,
2013-01-11 00:50:00,42.3,30.6,30.52,ENE,67,0.0,1.0,63,0.00,,,0.00,Wunderground v.1.15,2013-01-11 05:50:00,
2013-01-11 00:56:00,42.3,31.0,30.51,ENE,67,1.0,3.0,64,0.00,,,0.00,Wunderground v.1.15,2013-01-11 05:56:00,
2013-01-11 01:01:00,42.2,30.9,30.52,ENE,67,1.0,1.0,64,0.00,,,0.00,Wunderground v.1.15,2013-01-11 06:01:00,
2013-01-11 01:07:00,42.0,30.7,30.52,ENE,67,0.0,2.0,64,0.00,,,0.00,Wunderground v.1.15,2013-01-11 06:07:00,
2013-01-11 01:12:00,42.0,30.7,30.51,ENE,67,2.0,2.0,64,0.00,,,0.00,Wunderground v.1.15,2013-01-11 06:12:00,
2013-01-11 01:17:00,41.8,30.9,30.51,ENE,67,2.0,2.0,65,0.00,,,0.00,Wunderground v.1.15,2013-01-11 06:17:00,
2013-01-11 01:23:00,41.9,30.6,30.51,ENE,69,1.0,3.0,64,0.00,,,0.00,Wunderground v.1.15,2013-01-11 06:23:00,
2013-01-11 01:29:00,41.6,30.7,30.51,ENE,69,1.0,3.0,65,0.00,,,0.00,Wunderground v.1.15,2013-01-11 06:29:00,
2013-01-11 01:35:00,41.3,30.8,30.51,ENE,71,2.0,4.0,66,0.00,,,0.00,Wunderground v.1.15,2013-01-11 06:35:00,
2013-01-11 01:40:00,40.9,30.8,30.51,NE,42,1.0,2.0,67,0.00,,,0.00,Wunderground v.1.15,2013-01-11 06:40:00,
2013-01-11 01:46:00,41.1,30.6,30.50,East,87,1.0,2.0,66,0.00,,,0.00,Wunderground v.1.15,2013-01-11 06:46:00,
2013-01-11 01:51:00,40.8,30.7,30.51,East,87,1.0,1.0,67,0.00,,,0.00,Wunderground v.1.15,2013-01-11 06:51:00,
2013-01-11 01:57:00,41.2,30.7,30.51,East,87,0.0,1.0,66,0.00,,,0.00,Wunderground v.1.15,2013-01-11 06:57:00,
2013-01-11 02:02:00,40.9,30.4,30.51,East,87,0.0,1.0,66,0.00,,,0.00,Wunderground v.1.15,2013-01-11 07:02:00,
2013-01-11 02:08:00,40.8,30.3,30.51,East,87,0.0,1.0,66,0.00,,,0.00,Wunderground v.1.15,2013-01-11 07:08:00,
2013-01-11 02:13:00,40.6,30.5,30.51,East,87,0.0,1.0,67,0.00,,,0.00,Wunderground v.1.15,2013-01-11 07:13:00,
2013-01-11 02:18:00,40.7,30.6,30.51,East,87,1.0,2.0,67,0.00,,,0.00,Wunderground v.1.15,2013-01-11 07:18:00,
2013-01-11 02:23:00,40.8,30.7,30.51,East,87,0.0,2.0,67,0.00,,,0.00,Wunderground v.1.15,2013-01-11 07:23:00,
2013-01-11 02:29:00,40.5,30.4,30.50,East,87,2.0,2.0,67,0.00,,,0.00,Wunderground v.1.15,2013-01-11 07:29:00,
2013-01-11 02:34:00,39.8,30.5,30.49,East,87,1.0,2.0,69,0.00,,,0.00,Wunderground v.1.15,2013-01-11 07:34:00,
2013-01-11 02:40:00,40.1,30.4,30.49,East,87,0.0,1.0,68,0.00,,,0.00,Wunderground v.1.15,2013-01-11 07:40:00,
2013-01-11 02:45:00,40.1,30.4,30.49,East,84,0.0,2.0,68,0.00,,,0.00,Wunderground v.1.15,2013-01-11 07:45:00,
2013-01-11 02:50:00,40.1,30.4,30.49,East,84,0.0,1.0,68,0.00,,,0.00,Wunderground v.1.15,2013-01-11 07:50:00,
2013-01-11 02:55:00,40.1,30.4,30.50,East,84,0.0,1.0,68,0.00,,,0.00,Wunderground v.1.15,2013-01-11 07:55:00,
2013-01-11 03:00:00,40.2,30.5,30.49,East,84,0.0,0.0,68,0.00,,,0.00,Wunderground v.1.15,2013-01-11 08:00:00,
2013-01-11 03:05:00,40.2,30.5,30.49,East,84,1.0,1.0,68,0.00,,,0.00,Wunderground v.1.15,2013-01-11 08:05:00,
2013-01-11 03:10:00,40.1,30.4,30.49,East,84,0.0,0.0,68,0.00,,,0.00,Wunderground v.1.15,2013-01-11 08:10:00,
2013-01-11 03:16:00,39.9,30.2,30.49,East,84,0.0,0.0,68,0.00,,,0.00,Wunderground v.1.15,2013-01-11 08:16:00,
2013-01-11 03:21:00,39.8,30.1,30.49,East,84,0.0,0.0,68,0.00,,,0.00,Wunderground v.1.15,2013-01-11 08:21:00,
2013-01-11 03:26:00,39.8,30.1,30.49,East,84,0.0,0.0,68,0.00,,,0.00,Wunderground v.1.15,2013-01-11 08:26:00,
2013-01-11 03:31:00,39.6,30.3,30.49,East,84,1.0,1.0,69,0.00,,,0.00,Wunderground v.1.15,2013-01-11 08:31:00,
2013-01-11 03:36:00,39.6,30.3,30.49,East,84,0.0,1.0,69,0.00,,,0.00,Wunderground v.1.15,2013-01-11 08:36:00,
2013-01-11 03:44:00,39.4,30.1,30.48,East,84,0.0,0.0,69,0.00,,,0.00,Wunderground v.1.15,2013-01-11 08:44:00,
2013-01-11 03:45:00,39.5,30.2,30.48,N/A,-737280,0.0,-999.0,69,0.00,,,0.07,Wunderground v.1.15,2013-01-11 08:45:00,
2013-01-11 03:50:00,39.3,30.0,30.48,N/A,-737280,0.0,-999.0,69,0.00,,,0.07,Wunderground v.1.15,2013-01-11 08:50:00,
2013-01-11 03:55:00,39.2,29.9,30.48,East,90,0.0,-999.0,69,0.00,,,0.07,Wunderground v.1.15,2013-01-11 08:55:00,
2013-01-11 04:00:00,39.1,29.8,30.48,N/A,-737280,0.0,-999.0,69,0.00,,,0.07,Wunderground v.1.15,2013-01-11 09:00:00,
2013-01-11 04:05:00,39.3,30.0,30.48,East,90,1.0,-999.0,69,0.00,,,0.07,Wunderground v.1.15,2013-01-11 09:05:00,
2013-01-11 04:10:00,39.5,30.2,30.47,East,90,0.0,-999.0,69,0.00,,,0.07,Wunderground v.1.15,2013-01-11 09:10:00,
2013-01-11 04:15:00,39.5,30.2,30.47,East,90,1.0,-999.0,69,0.00,,,0.07,Wunderground v.1.15,2013-01-11 09:15:00,
2013-01-11 04:20:00,39.6,30.3,30.47,East,90,1.0,-999.0,69,0.00,,,0.07,Wunderground v.1.15,2013-01-11 09:20:00,
2013-01-11 04:25:00,39.7,30.4,30.47,East,90,1.0,-999.0,69,0.00,,,0.07,Wunderground v.1.15,2013-01-11 09:25:00,
2013-01-11 04:30:00,39.7,30.4,30.47,East,90,0.0,-999.0,69,0.00,,,0.07,Wunderground v.1.15,2013-01-11 09:30:00,
2013-01-11 04:35:00,39.7,30.7,30.47,East,90,0.0,-999.0,70,0.00,,,0.07,Wunderground v.1.15,2013-01-11 09:35:00,
2013-01-11 04:40:00,39.5,30.5,30.46,N/A,-737280,0.0,-999.0,70,0.00,,,0.07,Wunderground v.1.15,2013-01-11 09:40:00,
2013-01-11 04:45:00,39.5,30.5,30.47,East,90,0.0,-999.0,70,0.00,,,0.07,Wunderground v.1.15,2013-01-11 09:45:00,
2013-01-11 04:50:00,39.5,30.5,30.48,East,90,1.0,-999.0,70,0.00,,,0.07,Wunderground v.1.15,2013-01-11 09:50:00,
2013-01-11 04:55:00,39.4,30.8,30.47,East,90,0.0,-999.0,71,0.00,,,0.07,Wunderground v.1.15,2013-01-11 09:55:00,
2013-01-11 05:00:00,39.1,30.5,30.47,East,90,0.0,-999.0,71,0.00,,,0.07,Wunderground v.1.15,2013-01-11 10:00:00,
2013-01-11 05:05:00,39.2,30.6,30.47,East,90,0.0,-999.0,71,0.00,,,0.07,Wunderground v.1.15,2013-01-11 10:05:00,
2013-01-11 05:10:00,39.3,30.7,30.46,East,90,1.0,-999.0,71,0.00,,,0.07,Wunderground v.1.15,2013-01-11 10:10:00,
2013-01-11 05:15:00,39.3,30.7,30.45,East,90,1.0,-999.0,71,0.00,,,0.07,Wunderground v.1.15,2013-01-11 10:15:00,
2013-01-11 05:20:00,39.5,30.9,30.45,East,90,1.0,-999.0,71,0.00,,,0.07,Wunderground v.1.15,2013-01-11 10:20:00,
2013-01-11 05:25:00,39.4,30.8,30.45,East,90,0.0,-999.0,71,0.00,,,0.07,Wunderground v.1.15,2013-01-11 10:25:00,
2013-01-11 05:30:00,39.4,30.8,30.46,East,90,1.0,-999.0,71,0.00,,,0.07,Wunderground v.1.15,2013-01-11 10:30:00,
2013-01-11 05:35:00,39.0,30.4,30.46,East,90,1.0,-999.0,71,0.00,,,0.07,Wunderground v.1.15,2013-01-11 10:35:00,
2013-01-11 05:40:00,38.8,30.5,30.46,East,90,1.0,-999.0,72,0.00,,,0.07,Wunderground v.1.15,2013-01-11 10:40:00,
2013-01-11 05:45:00,38.6,30.4,30.47,East,90,0.0,-999.0,72,0.00,,,0.07,Wunderground v.1.15,2013-01-11 10:45:00,
2013-01-11 05:50:00,38.5,30.3,30.45,East,90,0.0,-999.0,72,0.00,,,0.07,Wunderground v.1.15,2013-01-11 10:50:00,
2013-01-11 05:55:00,38.1,30.2,30.45,East,90,1.0,-999.0,73,0.00,,,0.07,Wunderground v.1.15,2013-01-11 10:55:00,
2013-01-11 06:00:00,37.9,30.4,30.45,East,90,1.0,-999.0,74,0.00,,,0.07,Wunderground v.1.15,2013-01-11 11:00:00,
2013-01-11 06:05:00,37.9,30.4,30.45,East,90,1.0,-999.0,74,0.00,,,0.07,Wunderground v.1.15,2013-01-11 11:05:00,
2013-01-11 06:10:00,38.2,30.3,30.45,East,90,0.0,-999.0,73,0.00,,,0.07,Wunderground v.1.15,2013-01-11 11:10:00,
2013-01-11 06:15:00,38.1,30.2,30.45,East,90,0.0,-999.0,73,0.00,,,0.07,Wunderground v.1.15,2013-01-11 11:15:00,
2013-01-11 06:20:00,37.8,30.3,30.45,East,90,1.0,-999.0,74,0.00,,,0.07,Wunderground v.1.15,2013-01-11 11:20:00,
2013-01-11 06:25:00,37.9,30.4,30.43,East,90,2.0,-999.0,74,0.00,,,0.07,Wunderground v.1.15,2013-01-11 11:25:00,
2013-01-11 06:30:00,38.0,30.4,30.43,East,90,1.0,-999.0,74,0.00,,,0.07,Wunderground v.1.15,2013-01-11 11:30:00,
2013-01-11 06:35:00,38.0,30.4,30.44,East,90,1.0,-999.0,74,0.00,,,0.07,Wunderground v.1.15,2013-01-11 11:35:00,
2013-01-11 06:40:00,37.9,30.4,30.43,East,90,2.0,-999.0,74,0.00,,,0.07,Wunderground v.1.15,2013-01-11 11:40:00,
2013-01-11 06:45:00,38.0,30.8,30.43,East,90,2.0,-999.0,75,0.00,,,0.07,Wunderground v.1.15,2013-01-11 11:45:00,
2013-01-11 06:50:00,38.4,30.8,30.43,East,90,2.0,-999.0,74,0.00,,,0.07,Wunderground v.1.15,2013-01-11 11:50:00,
2013-01-11 06:55:00,38.8,31.2,30.43,East,90,2.0,-999.0,74,0.00,,,0.07,Wunderground v.1.15,2013-01-11 11:55:00,
2013-01-11 07:00:00,39.0,31.1,30.43,East,90,1.0,-999.0,73,0.00,,,0.07,Wunderground v.1.15,2013-01-11 12:00:00,
2013-01-11 07:05:00,39.1,31.5,30.43,East,90,0.0,-999.0,74,0.00,,,0.07,Wunderground v.1.15,2013-01-11 12:05:00,
2013-01-11 07:10:00,39.4,31.8,30.43,East,90,1.0,-999.0,74,0.00,,,0.07,Wunderground v.1.15,2013-01-11 12:10:00,
2013-01-11 07:15:00,39.5,32.2,30.44,East,90,1.0,-999.0,75,0.00,,,0.07,Wunderground v.1.15,2013-01-11 12:15:00,
2013-01-11 07:20:00,39.4,32.5,30.43,East,90,1.0,-999.0,76,0.00,,,0.07,Wunderground v.1.15,2013-01-11 12:20:00,
2013-01-11 07:25:00,39.5,32.6,30.43,East,90,1.0,-999.0,76,0.00,,,0.07,Wunderground v.1.15,2013-01-11 12:25:00,
2013-01-11 07:30:00,39.7,32.8,30.43,East,90,1.0,-999.0,76,0.00,,,0.07,Wunderground v.1.15,2013-01-11 12:30:00,
2013-01-11 07:35:00,39.7,32.4,30.43,East,90,1.0,-999.0,75,0.00,,,0.07,Wunderground v.1.15,2013-01-11 12:35:00,
2013-01-11 07:40:00,39.7,32.4,30.42,East,90,2.0,-999.0,75,0.00,,,0.07,Wunderground v.1.15,2013-01-11 12:40:00,
2013-01-11 07:45:00,40.0,32.7,30.43,East,90,0.0,-999.0,75,0.00,,,0.07,Wunderground v.1.15,2013-01-11 12:45:00,
2013-01-11 07:50:00,40.2,33.2,30.42,East,90,1.0,-999.0,76,0.00,,,0.07,Wunderground v.1.15,2013-01-11 12:50:00,
2013-01-11 07:55:00,39.8,33.2,30.42,East,90,1.0,-999.0,77,0.00,,,0.07,Wunderground v.1.15,2013-01-11 12:55:00,
2013-01-11 08:00:00,39.8,33.2,30.42,East,90,1.0,-999.0,77,0.00,,,0.07,Wunderground v.1.15,2013-01-11 13:00:00,
2013-01-11 08:05:00,39.8,33.2,30.42,East,90,1.0,-999.0,77,0.00,,,0.07,Wunderground v.1.15,2013-01-11 13:05:00,
2013-01-11 08:10:00,39.9,33.3,30.43,East,90,0.0,-999.0,77,0.00,,,0.07,Wunderground v.1.15,2013-01-11 13:10:00,
2013-01-11 08:15:00,40.1,33.1,30.43,East,90,0.0,-999.0,76,0.00,,,0.07,Wunderground v.1.15,2013-01-11 13:15:00,
2013-01-11 08:20:00,40.3,33.3,30.43,East,90,0.0,-999.0,76,0.00,,,0.07,Wunderground v.1.15,2013-01-11 13:20:00,
2013-01-11 08:25:00,40.5,33.2,30.42,East,90,1.0,-999.0,75,0.00,,,0.07,Wunderground v.1.15,2013-01-11 13:25:00,
2013-01-11 08:30:00,40.7,33.4,30.42,East,90,1.0,-999.0,75,0.00,,,0.07,Wunderground v.1.15,2013-01-11 13:30:00,
2013-01-11 08:35:00,40.9,33.6,30.42,East,90,1.0,-999.0,75,0.00,,,0.07,Wunderground v.1.15,2013-01-11 13:35:00,
2013-01-11 08:40:00,41.0,33.7,30.42,East,90,1.0,-999.0,75,0.00,,,0.07,Wunderground v.1.15,2013-01-11 13:40:00,
2013-01-11 08:45:00,41.1,33.4,30.42,East,90,1.0,-999.0,74,0.00,,,0.07,Wunderground v.1.15,2013-01-11 13:45:00,
2013-01-11 08:50:00,41.3,33.6,30.42,East,90,1.0,-999.0,74,0.00,,,0.07,Wunderground v.1.15,2013-01-11 13:50:00,
2013-01-11 08:55:00,41.4,33.7,30.42,East,90,1.0,-999.0,74,0.00,,,0.07,Wunderground v.1.15,2013-01-11 13:55:00,
2013-01-11 09:00:00,41.6,34.3,30.41,East,90,0.0,-999.0,75,0.00,,,0.07,Wunderground v.1.15,2013-01-11 14:00:00,
2013-01-11 09:05:00,41.8,34.5,30.42,East,90,1.0,-999.0,75,0.00,,,0.07,Wunderground v.1.15,2013-01-11 14:05:00,
2013-01-11 09:10:00,41.9,34.6,30.41,East,90,2.0,-999.0,75,0.00,,,0.07,Wunderground v.1.15,2013-01-11 14:10:00,
2013-01-11 09:15:00,41.9,34.2,30.42,ESE,113,2.0,-999.0,74,0.00,,,0.07,Wunderground v.1.15,2013-01-11 14:15:00,
2013-01-11 09:20:00,41.9,34.6,30.42,ESE,113,1.0,-999.0,75,0.00,,,0.07,Wunderground v.1.15,2013-01-11 14:20:00,
2013-01-11 09:25:00,42.0,34.6,30.42,ESE,113,1.0,-999.0,75,0.00,,,0.07,Wunderground v.1.15,2013-01-11 14:25:00,
2013-01-11 09:30:00,42.0,34.3,30.40,ESE,113,2.0,-999.0,74,0.00,,,0.07,Wunderground v.1.15,2013-01-11 14:30:00,
2013-01-11 09:35:00,42.3,34.6,30.41,ESE,113,2.0,-999.0,74,0.00,,,0.07,Wunderground v.1.15,2013-01-11 14:35:00,
2013-01-11 09:40:00,42.7,34.6,30.40,SE,135,1.0,-999.0,73,0.00,,,0.07,Wunderground v.1.15,2013-01-11 14:40:00,
2013-01-11 09:45:00,43.3,35.2,30.40,ESE,113,2.0,-999.0,73,0.00,,,0.07,Wunderground v.1.15,2013-01-11 14:45:00,
2013-01-11 09:50:00,43.3,34.9,30.39,ESE,113,3.0,-999.0,72,0.00,,,0.07,Wunderground v.1.15,2013-01-11 14:50:00,
2013-01-11 09:55:00,43.3,34.5,30.39,SE,135,3.0,-999.0,71,0.00,,,0.07,Wunderground v.1.15,2013-01-11 14:55:00,
2013-01-11 10:00:00,43.2,34.8,30.39,SE,135,2.0,-999.0,72,0.00,,,0.07,Wunderground v.1.15,2013-01-11 15:00:00,
2013-01-11 10:05:00,43.1,34.7,30.40,ESE,113,2.0,-999.0,72,0.00,,,0.07,Wunderground v.1.15,2013-01-11 15:05:00,
2013-01-11 10:10:00,43.3,34.9,30.39,SE,135,1.0,-999.0,72,0.00,,,0.07,Wunderground v.1.15,2013-01-11 15:10:00,
2013-01-11 10:15:00,43.2,34.8,30.39,ESE,113,2.0,-999.0,72,0.00,,,0.07,Wunderground v.1.15,2013-01-11 15:15:00,
2013-01-11 10:20:00,43.6,35.2,30.39,ESE,113,1.0,-999.0,72,0.00,,,0.07,Wunderground v.1.15,2013-01-11 15:20:00,
2013-01-11 10:25:00,43.7,34.9,30.39,ESE,113,1.0,-999.0,71,0.00,,,0.07,Wunderground v.1.15,2013-01-11 15:25:00,
2013-01-11 10:30:00,43.7,34.9,30.39,ESE,113,2.0,-999.0,71,0.00,,,0.07,Wunderground v.1.15,2013-01-11 15:30:00,
2013-01-11 10:35:00,43.5,34.7,30.38,SE,135,2.0,-999.0,71,0.00,,,0.07,Wunderground v.1.15,2013-01-11 15:35:00,
2013-01-11 10:40:00,43.4,34.3,30.37,SE,135,2.0,-999.0,70,0.00,,,0.07,Wunderground v.1.15,2013-01-11 15:40:00,
2013-01-11 10:45:00,43.4,34.6,30.37,ESE,113,2.0,-999.0,71,0.00,,,0.07,Wunderground v.1.15,2013-01-11 15:45:00,
2013-01-11 10:50:00,43.3,34.9,30.37,ESE,113,2.0,-999.0,72,0.00,,,0.07,Wunderground v.1.15,2013-01-11 15:50:00,
2013-01-11 10:55:00,43.3,34.9,30.37,SE,135,1.0,-999.0,72,0.00,,,0.07,Wunderground v.1.15,2013-01-11 15:55:00,
2013-01-11 11:00:00,43.3,34.9,30.37,SE,135,2.0,-999.0,72,0.00,,,0.07,Wunderground v.1.15,2013-01-11 16:00:00,
2013-01-11 11:05:00,43.3,34.9,30.36,SE,135,2.0,-999.0,72,0.00,,,0.07,Wunderground v.1.15,2013-01-11 16:05:00,
2013-01-11 11:10:00,43.5,35.1,30.35,SE,135,1.0,-999.0,72,0.00,,,0.07,Wunderground v.1.15,2013-01-11 16:10:00,
2013-01-11 11:15:00,43.7,34.9,30.34,SE,135,2.0,-999.0,71,0.00,,,0.07,Wunderground v.1.15,2013-01-11 16:15:00,
2013-01-11 11:20:00,43.8,35.0,30.34,ESE,113,1.0,-999.0,71,0.00,,,0.07,Wunderground v.1.15,2013-01-11 16:20:00,
2013-01-11 11:25:00,43.7,34.9,30.34,SSE,158,2.0,-999.0,71,0.00,,,0.07,Wunderground v.1.15,2013-01-11 16:25:00,
2013-01-11 11:30:00,43.8,35.4,30.34,ESE,113,2.0,-999.0,72,0.00,,,0.07,Wunderground v.1.15,2013-01-11 16:30:00,
2013-01-11 11:35:00,43.8,35.4,30.32,ESE,113,1.0,-999.0,72,0.00,,,0.07,Wunderground v.1.15,2013-01-11 16:35:00,
2013-01-11 11:40:00,43.9,35.5,30.32,ESE,113,2.0,-999.0,72,0.00,,,0.07,Wunderground v.1.15,2013-01-11 16:40:00,
2013-01-11 11:45:00,44.1,35.3,30.33,SE,135,2.0,-999.0,71,0.00,,,0.07,Wunderground v.1.15,2013-01-11 16:45:00,
2013-01-11 11:50:00,44.4,35.6,30.32,SE,135,2.0,-999.0,71,0.00,,,0.07,Wunderground v.1.15,2013-01-11 16:50:00,
2013-01-11 11:55:00,44.3,35.1,30.32,ESE,113,2.0,-999.0,70,0.00,,,0.07,Wunderground v.1.15,2013-01-11 16:55:00,
2013-01-11 12:00:00,44.5,35.7,30.31,SSE,158,2.0,-999.0,71,0.00,,,0.07,Wunderground v.1.15,2013-01-11 17:00:00,
2013-01-11 12:05:00,44.7,35.9,30.31,SE,135,2.0,-999.0,71,0.00,,,0.07,Wunderground v.1.15,2013-01-11 17:05:00,
2013-01-11 12:10:00,45.0,36.2,30.30,SSE,158,2.0,-999.0,71,0.00,,,0.07,Wunderground v.1.15,2013-01-11 17:10:00,
2013-01-11 12:15:00,44.8,36.0,30.30,SSE,158,2.0,-999.0,71,0.00,,,0.07,Wunderground v.1.15,2013-01-11 17:15:00,
2013-01-11 12:20:00,44.7,35.9,30.29,SE,135,2.0,-999.0,71,0.00,,,0.07,Wunderground v.1.15,2013-01-11 17:20:00,
2013-01-11 12:25:00,44.6,36.5,30.29,SSE,158,2.0,-999.0,73,0.00,,,0.07,Wunderground v.1.15,2013-01-11 17:25:00,
2013-01-11 12:30:00,44.7,36.6,30.28,SSE,158,2.0,-999.0,73,0.00,,,0.07,Wunderground v.1.15,2013-01-11 17:30:00,
2013-01-11 12:35:00,44.7,37.3,30.28,SE,135,2.0,-999.0,75,0.00,,,0.07,Wunderground v.1.15,2013-01-11 17:35:00,
2013-01-11 12:40:00,44.5,37.1,30.29,SE,135,2.0,-999.0,75,0.00,,,0.07,Wunderground v.1.15,2013-01-11 17:40:00,
2013-01-11 12:45:00,44.2,36.8,30.29,SE,135,3.0,-999.0,75,0.00,,,0.07,Wunderground v.1.15,2013-01-11 17:45:00,
2013-01-11 12:50:00,44.0,37.3,30.28,SSE,158,2.0,-999.0,77,0.00,,,0.07,Wunderground v.1.15,2013-01-11 17:50:00,
2013-01-11 12:55:00,43.7,37.0,30.27,East,90,2.0,-999.0,77,0.00,,,0.07,Wunderground v.1.15,2013-01-11 17:55:00,
2013-01-11 13:00:00,43.7,37.3,30.28,SSE,158,2.0,-999.0,78,0.00,,,0.07,Wunderground v.1.15,2013-01-11 18:00:00,
2013-01-11 13:05:00,43.8,37.4,30.27,SSE,158,2.0,-999.0,78,0.00,,,0.07,Wunderground v.1.15,2013-01-11 18:05:00,
2013-01-11 13:10:00,43.7,37.3,30.26,SSE,158,1.0,-999.0,78,0.00,,,0.07,Wunderground v.1.15,2013-01-11 18:10:00,
2013-01-11 13:15:00,43.5,37.4,30.26,SSE,158,2.0,-999.0,79,0.00,,,0.07,Wunderground v.1.15,2013-01-11 18:15:00,
2013-01-11 13:20:00,43.5,38.1,30.26,SSE,158,2.0,-999.0,81,0.00,,,0.07,Wunderground v.1.15,2013-01-11 18:20:00,
2013-01-11 13:25:00,43.5,38.1,30.26,South,180,2.0,-999.0,81,0.00,,,0.07,Wunderground v.1.15,2013-01-11 18:25:00,
2013-01-11 13:30:00,43.4,38.0,30.25,SSE,158,2.0,-999.0,81,0.00,,,0.07,Wunderground v.1.15,2013-01-11 18:30:00,
2013-01-11 13:35:00,43.4,38.0,30.25,SE,135,1.0,-999.0,81,0.00,,,0.07,Wunderground v.1.15,2013-01-11 18:35:00,
2013-01-11 13:40:00,43.6,38.2,30.25,SE,135,1.0,-999.0,81,0.00,,,0.07,Wunderground v.1.15,2013-01-11 18:40:00,
2013-01-11 13:45:00,43.6,38.2,30.25,SE,135,1.0,-999.0,81,0.00,,,0.07,Wunderground v.1.15,2013-01-11 18:45:00,
2013-01-11 13:50:00,43.6,38.2,30.26,SE,135,1.0,-999.0,81,0.00,,,0.07,Wunderground v.1.15,2013-01-11 18:50:00,
2013-01-11 13:55:00,43.5,38.1,30.26,SE,135,2.0,-999.0,81,0.00,,,0.07,Wunderground v.1.15,2013-01-11 18:55:00,
2013-01-11 14:00:00,43.4,38.3,30.25,SSE,158,2.0,-999.0,82,0.00,,,0.07,Wunderground v.1.15,2013-01-11 19:00:00,
2013-01-11 14:05:00,43.3,38.5,30.24,SE,135,2.0,-999.0,83,0.00,,,0.07,Wunderground v.1.15,2013-01-11 19:05:00,
2013-01-11 14:10:00,43.2,39.0,30.23,SE,135,2.0,-999.0,85,0.00,,,0.07,Wunderground v.1.15,2013-01-11 19:10:00,
2013-01-11 14:15:00,43.0,38.8,30.23,SSE,158,2.0,-999.0,85,0.00,,,0.07,Wunderground v.1.15,2013-01-11 19:15:00,
2013-01-11 14:20:00,43.1,39.2,30.22,SE,135,2.0,-999.0,86,0.00,,,0.07,Wunderground v.1.15,2013-01-11 19:20:00,
2013-01-11 14:25:00,43.1,39.2,30.22,SSE,158,2.0,-999.0,86,0.00,,,0.07,Wunderground v.1.15,2013-01-11 19:25:00,
2013-01-11 14:30:00,43.0,39.1,30.22,SSE,158,3.0,-999.0,86,0.00,,,0.07,Wunderground v.1.15,2013-01-11 19:30:00,
2013-01-11 14:35:00,42.9,39.3,30.22,SE,135,1.0,-999.0,87,0.00,,,0.07,Wunderground v.1.15,2013-01-11 19:35:00,
2013-01-11 14:40:00,42.9,39.3,30.22,SE,135,1.0,-999.0,87,0.00,,,0.07,Wunderground v.1.15,2013-01-11 19:40:00,
2013-01-11 14:45:00,42.7,39.4,30.22,SE,135,2.0,-999.0,88,0.00,,,0.07,Wunderground v.1.15,2013-01-11 19:45:00,
2013-01-11 14:50:00,42.5,39.2,30.22,SE,135,2.0,-999.0,88,0.00,,,0.07,Wunderground v.1.15,2013-01-11 19:50:00,
2013-01-11 14:55:00,42.4,39.4,30.22,SE,135,1.0,-999.0,89,0.00,,,0.07,Wunderground v.1.15,2013-01-11 19:55:00,
2013-01-11 15:00:00,42.2,39.5,30.23,SE,135,1.0,-999.0,90,0.00,,,0.07,Wunderground v.1.15,2013-01-11 20:00:00,
2013-01-11 15:05:00,42.1,39.4,30.23,SE,135,1.0,-999.0,90,0.00,,,0.07,Wunderground v.1.15,2013-01-11 20:05:00,
2013-01-11 15:10:00,42.0,39.6,30.23,SE,135,1.0,-999.0,91,0.00,,,0.07,Wunderground v.1.15,2013-01-11 20:10:00,
2013-01-11 15:15:00,41.9,39.5,30.22,SE,135,1.0,-999.0,91,0.00,,,0.07,Wunderground v.1.15,2013-01-11 20:15:00,
2013-01-11 15:20:00,41.8,39.6,30.22,SE,135,1.0,-999.0,92,0.00,,,0.07,Wunderground v.1.15,2013-01-11 20:20:00,
2013-01-11 15:25:00,41.8,39.6,30.21,SE,135,2.0,-999.0,92,0.00,,,0.07,Wunderground v.1.15,2013-01-11 20:25:00,
2013-01-11 15:30:00,41.8,39.6,30.22,SE,135,1.0,-999.0,92,0.00,,,0.07,Wunderground v.1.15,2013-01-11 20:30:00,
2013-01-11 15:35:00,41.7,39.8,30.22,SE,135,1.0,-999.0,93,0.00,,,0.07,Wunderground v.1.15,2013-01-11 20:35:00,
2013-01-11 15:40:00,41.7,39.8,30.21,SE,135,1.0,-999.0,93,0.00,,,0.07,Wunderground v.1.15,2013-01-11 20:40:00,
2013-01-11 15:45:00,41.6,39.7,30.21,SE,135,0.0,-999.0,93,0.00,,,0.07,Wunderground v.1.15,2013-01-11 20:45:00,
2013-01-11 15:50:00,41.6,39.7,30.21,SE,135,1.0,-999.0,93,0.00,,,0.07,Wunderground v.1.15,2013-01-11 20:50:00,
2013-01-11 15:55:00,41.6,39.7,30.21,SE,135,0.0,-999.0,93,0.00,,,0.07,Wunderground v.1.15,2013-01-11 20:55:00,
2013-01-11 16:00:00,41.5,39.9,30.21,SE,135,1.0,-999.0,94,0.00,,,0.07,Wunderground v.1.15,2013-01-11 21:00:00,
2013-01-11 16:05:00,41.5,39.9,30.21,SE,135,1.0,-999.0,94,0.00,,,0.07,Wunderground v.1.15,2013-01-11 21:05:00,
2013-01-11 16:10:00,41.6,40.0,30.20,SE,135,1.0,-999.0,94,0.00,,,0.07,Wunderground v.1.15,2013-01-11 21:10:00,
2013-01-11 16:15:00,41.6,40.0,30.20,SE,135,1.0,-999.0,94,0.00,,,0.07,Wunderground v.1.15,2013-01-11 21:15:00,
2013-01-11 16:20:00,41.6,40.0,30.20,SE,135,1.0,-999.0,94,0.00,,,0.07,Wunderground v.1.15,2013-01-11 21:20:00,
2013-01-11 16:25:00,41.6,40.0,30.20,SE,135,1.0,-999.0,94,0.00,,,0.07,Wunderground v.1.15,2013-01-11 21:25:00,
2013-01-11 16:30:00,41.6,40.0,30.19,SE,135,0.0,-999.0,94,0.01,,,0.07,Wunderground v.1.15,2013-01-11 21:30:00,
2013-01-11 16:35:00,41.6,40.3,30.18,SE,135,1.0,-999.0,95,0.02,,,0.07,Wunderground v.1.15,2013-01-11 21:35:00,
2013-01-11 16:40:00,41.6,40.3,30.18,SE,135,0.0,-999.0,95,0.02,,,0.07,Wunderground v.1.15,2013-01-11 21:40:00,
2013-01-11 16:45:00,41.6,40.3,30.18,SE,135,0.0,-999.0,95,0.02,,,0.07,Wunderground v.1.15,2013-01-11 21:45:00,
2013-01-11 16:50:00,41.7,40.4,30.18,SE,135,1.0,-999.0,95,0.02,,,0.07,Wunderground v.1.15,2013-01-11 21:50:00,
2013-01-11 16:55:00,41.6,40.3,30.18,SE,135,1.0,-999.0,95,0.02,,,0.07,Wunderground v.1.15,2013-01-11 21:55:00,
2013-01-11 17:00:00,41.6,40.3,30.17,SE,135,1.0,-999.0,95,0.02,,,0.07,Wunderground v.1.15,2013-01-11 22:00:00,
2013-01-11 17:05:00,41.7,40.4,30.18,SE,135,0.0,-999.0,95,0.02,,,0.07,Wunderground v.1.15,2013-01-11 22:05:00,
2013-01-11 17:10:00,41.8,40.5,30.18,SE,135,0.0,-999.0,95,0.03,,,0.07,Wunderground v.1.15,2013-01-11 22:10:00,
2013-01-11 17:15:00,41.8,40.5,30.17,SE,135,0.0,-999.0,95,0.04,,,0.07,Wunderground v.1.15,2013-01-11 22:15:00,
2013-01-11 17:20:00,41.8,40.5,30.17,SE,135,0.0,-999.0,95,0.06,,,0.07,Wunderground v.1.15,2013-01-11 22:20:00,
2013-01-11 17:25:00,41.8,40.5,30.17,SE,135,1.0,-999.0,95,0.06,,,0.07,Wunderground v.1.15,2013-01-11 22:25:00,
2013-01-11 17:30:00,41.8,40.5,30.17,SE,135,0.0,-999.0,95,0.05,,,0.07,Wunderground v.1.15,2013-01-11 22:30:00,
2013-01-11 17:35:00,41.8,40.5,30.17,SE,135,0.0,-999.0,95,0.04,,,0.07,Wunderground v.1.15,2013-01-11 22:35:00,
2013-01-11 17:40:00,41.9,40.8,30.17,SE,135,0.0,-999.0,96,0.04,,,0.07,Wunderground v.1.15,2013-01-11 22:40:00,
2013-01-11 17:45:00,41.9,40.8,30.17,SE,135,0.0,-999.0,96,0.04,,,0.07,Wunderground v.1.15,2013-01-11 22:45:00,
2013-01-11 17:50:00,41.9,40.8,30.17,N/A,-737280,0.0,-999.0,96,0.04,,,0.07,Wunderground v.1.15,2013-01-11 22:50:00,
2013-01-11 17:55:00,41.9,40.8,30.17,SE,135,0.0,-999.0,96,0.04,,,0.07,Wunderground v.1.15,2013-01-11 22:55:00,
2013-01-11 18:00:00,42.0,40.9,30.17,SE,135,1.0,-999.0,96,0.04,,,0.07,Wunderground v.1.15,2013-01-11 23:00:00,
2013-01-11 18:05:00,42.0,40.9,30.17,SE,135,0.0,-999.0,96,0.04,,,0.07,Wunderground v.1.15,2013-01-11 23:05:00,
2013-01-11 18:10:00,42.0,40.9,30.17,SE,135,0.0,-999.0,96,0.03,,,0.07,Wunderground v.1.15,2013-01-11 23:10:00,
2013-01-11 18:15:00,42.1,41.0,30.17,SE,135,0.0,-999.0,96,0.02,,,0.07,Wunderground v.1.15,2013-01-11 23:15:00,
2013-01-11 18:20:00,42.1,41.0,30.17,SE,135,1.0,-999.0,96,0.00,,,0.07,Wunderground v.1.15,2013-01-11 23:20:00,
2013-01-11 18:25:00,42.1,41.0,30.16,SE,135,0.0,-999.0,96,0.00,,,0.07,Wunderground v.1.15,2013-01-11 23:25:00,
2013-01-11 18:30:00,42.2,41.1,30.17,SE,135,0.0,-999.0,96,0.00,,,0.07,Wunderground v.1.15,2013-01-11 23:30:00,
2013-01-11 18:35:00,42.2,41.1,30.16,SE,135,1.0,-999.0,96,0.00,,,0.07,Wunderground v.1.15,2013-01-11 23:35:00,
2013-01-11 18:40:00,42.2,41.1,30.16,SE,135,1.0,-999.0,96,0.00,,,0.07,Wunderground v.1.15,2013-01-11 23:40:00,
2013-01-11 18:45:00,42.2,41.1,30.16,SE,135,1.0,-999.0,96,0.00,,,0.07,Wunderground v.1.15,2013-01-11 23:45:00,
2013-01-11 18:50:00,42.2,41.1,30.16,SE,135,0.0,-999.0,96,0.00,,,0.07,Wunderground v.1.15,2013-01-11 23:50:00,
2013-01-11 18:55:00,42.2,41.1,30.16,SE,135,1.0,-999.0,96,0.00,,,0.07,Wunderground v.1.15,2013-01-11 23:55:00,
2013-01-11 19:00:00,42.2,41.1,30.16,SE,135,1.0,-999.0,96,0.00,,,0.07,Wunderground v.1.15,2013-01-12 00:00:00,
2013-01-11 19:05:00,42.2,41.1,30.16,SE,135,1.0,-999.0,96,0.01,,,0.07,Wunderground v.1.15,2013-01-12 00:05:00,
2013-01-11 19:10:00,42.2,41.1,30.16,SE,135,1.0,-999.0,96,0.01,,,0.07,Wunderground v.1.15,2013-01-12 00:10:00,
2013-01-11 19:15:00,42.3,41.2,30.16,SE,135,1.0,-999.0,96,0.01,,,0.07,Wunderground v.1.15,2013-01-12 00:15:00,
2013-01-11 19:20:00,42.2,41.1,30.16,SE,135,1.0,-999.0,96,0.01,,,0.07,Wunderground v.1.15,2013-01-12 00:20:00,
2013-01-11 19:25:00,42.3,41.2,30.15,SE,135,1.0,-999.0,96,0.01,,,0.07,Wunderground v.1.15,2013-01-12 00:25:00,
2013-01-11 19:30:00,42.2,41.1,30.15,SE,135,1.0,-999.0,96,0.01,,,0.07,Wunderground v.1.15,2013-01-12 00:30:00,
2013-01-11 19:35:00,42.3,41.2,30.15,SE,135,1.0,-999.0,96,0.01,,,0.07,Wunderground v.1.15,2013-01-12 00:35:00,
2013-01-11 19:45:00,42.3,41.2,30.15,SE,135,1.0,-999.0,96,0.01,,,0.07,Wunderground v.1.15,2013-01-12 00:45:00,
2013-01-11 19:50:00,42.4,41.3,30.14,SSE,158,2.0,-999.0,96,0.01,,,0.07,Wunderground v.1.15,2013-01-12 00:50:00,
2013-01-11 19:55:00,42.4,41.3,30.14,SSE,158,1.0,-999.0,96,0.01,,,0.07,Wunderground v.1.15,2013-01-12 00:55:00,
2013-01-11 20:00:00,42.4,41.3,30.14,SSE,158,1.0,-999.0,96,0.01,,,0.07,Wunderground v.1.15,2013-01-12 01:00:00,
2013-01-11 20:05:00,42.4,41.3,30.14,SSE,158,1.0,-999.0,96,0.00,,,0.07,Wunderground v.1.15,2013-01-12 01:05:00,
2013-01-11 20:10:00,42.4,41.3,30.14,SSE,158,0.0,-999.0,96,0.00,,,0.07,Wunderground v.1.15,2013-01-12 01:10:00,
2013-01-11 20:15:00,42.4,41.3,30.14,SSE,158,1.0,-999.0,96,0.00,,,0.07,Wunderground v.1.15,2013-01-12 01:15:00,
2013-01-11 20:20:00,42.4,41.3,30.14,SSE,158,1.0,-999.0,96,0.00,,,0.07,Wunderground v.1.15,2013-01-12 01:20:00,
2013-01-11 20:25:00,42.4,41.3,30.14,SSE,158,2.0,-999.0,96,0.00,,,0.07,Wunderground v.1.15,2013-01-12 01:25:00,
2013-01-11 20:30:00,42.4,41.3,30.14,SSE,158,1.0,-999.0,96,0.00,,,0.07,Wunderground v.1.15,2013-01-12 01:30:00,
2013-01-11 20:35:00,42.5,41.4,30.14,SSE,158,0.0,-999.0,96,0.00,,,0.07,Wunderground v.1.15,2013-01-12 01:35:00,
2013-01-11 20:40:00,42.5,41.4,30.14,SSE,158,0.0,-999.0,96,0.00,,,0.07,Wunderground v.1.15,2013-01-12 01:40:00,
2013-01-11 20:45:00,42.6,41.5,30.14,South,180,2.0,-999.0,96,0.00,,,0.07,Wunderground v.1.15,2013-01-12 01:45:00,
2013-01-11 20:50:00,42.5,41.4,30.13,SSE,164,1.0,1.0,96,0.00,,,0.07,Wunderground v.1.15,2013-01-12 01:50:00,
2013-01-11 20:55:00,42.5,41.4,30.13,SSE,158,1.0,-999.0,96,0.00,,,0.07,Wunderground v.1.15,2013-01-12 01:55:00,
2013-01-11 21:00:00,42.5,41.4,30.13,SSE,164,0.0,1.0,96,0.00,,,0.07,Wunderground v.1.15,2013-01-12 02:00:00,
2013-01-11 21:05:00,42.5,41.4,30.13,SSE,164,0.0,2.0,96,0.00,,,0.07,Wunderground v.1.15,2013-01-12 02:05:00,
2013-01-11 21:10:00,42.5,41.4,30.13,SSE,164,0.0,1.0,96,0.00,,,0.07,Wunderground v.1.15,2013-01-12 02:10:00,
2013-01-11 21:16:00,42.5,41.4,30.14,SSE,164,0.0,1.0,96,0.00,,,0.07,Wunderground v.1.15,2013-01-12 02:16:00,
2013-01-11 21:21:00,42.6,41.5,30.14,SSE,164,1.0,3.0,96,0.00,,,0.07,Wunderground v.1.15,2013-01-12 02:21:00,
2013-01-11 21:26:00,42.5,41.4,30.14,South,171,2.0,3.0,96,0.00,,,0.07,Wunderground v.1.15,2013-01-12 02:26:00,
2013-01-11 21:31:00,42.5,41.4,30.15,WSW,248,1.0,2.0,96,0.00,,,0.07,Wunderground v.1.15,2013-01-12 02:31:00,
2013-01-11 21:36:00,42.6,41.5,30.14,WSW,248,0.0,2.0,96,0.00,,,0.07,Wunderground v.1.15,2013-01-12 02:36:00,
2013-01-11 21:41:00,42.6,41.5,30.13,WSW,244,1.0,1.0,96,0.00,,,0.07,Wunderground v.1.15,2013-01-12 02:41:00,
2013-01-11 21:46:00,42.7,41.6,30.14,WSW,244,0.0,1.0,96,0.00,,,0.07,Wunderground v.1.15,2013-01-12 02:46:00,
2013-01-11 21:51:00,42.6,41.5,30.14,WSW,244,1.0,2.0,96,0.00,,,0.07,Wunderground v.1.15,2013-01-12 02:51:00,
2013-01-11 21:56:00,42.6,41.5,30.14,WSW,244,0.0,2.0,96,0.00,,,0.07,Wunderground v.1.15,2013-01-12 02:56:00,
2013-01-11 22:01:00,42.6,41.8,30.14,WSW,244,1.0,1.0,97,0.00,,,0.07,Wunderground v.1.15,2013-01-12 03:01:00,
2013-01-11 22:06:00,42.6,41.8,30.14,WSW,240,2.0,3.0,97,0.00,,,0.07,Wunderground v.1.15,2013-01-12 03:06:00,
2013-01-11 22:11:00,42.6,41.8,30.14,WSW,240,2.0,2.0,97,0.00,,,0.07,Wunderground v.1.15,2013-01-12 03:11:00,
2013-01-11 22:16:00,42.6,41.8,30.13,SW,222,1.0,3.0,97,0.00,,,0.07,Wunderground v.1.15,2013-01-12 03:16:00,
2013-01-11 22:21:00,42.6,41.8,30.13,SSW,193,3.0,3.0,97,0.00,,,0.07,Wunderground v.1.15,2013-01-12 03:21:00,
2013-01-11 22:26:00,42.7,41.9,30.13,South,182,1.0,5.0,97,0.00,,,0.07,Wunderground v.1.15,2013-01-12 03:26:00,
2013-01-11 22:31:00,42.7,41.9,30.13,South,182,0.0,2.0,97,0.00,,,0.07,Wunderground v.1.15,2013-01-12 03:31:00,
2013-01-11 22:36:00,42.7,41.9,30.13,South,182,1.0,4.0,97,0.00,,,0.07,Wunderground v.1.15,2013-01-12 03:36:00,
2013-01-11 22:41:00,42.7,41.9,30.13,SSW,211,1.0,3.0,97,0.00,,,0.07,Wunderground v.1.15,2013-01-12 03:41:00,
2013-01-11 22:46:00,42.7,41.9,30.13,SSW,202,1.0,3.0,97,0.00,,,0.07,Wunderground v.1.15,2013-01-12 03:46:00,
2013-01-11 22:51:00,42.7,41.9,30.13,South,188,0.0,3.0,97,0.00,,,0.07,Wunderground v.1.15,2013-01-12 03:51:00,
2013-01-11 22:56:00,42.7,41.9,30.13,SSW,196,1.0,5.0,97,0.00,,,0.07,Wunderground v.1.15,2013-01-12 03:56:00,
2013-01-11 23:01:00,42.7,41.9,30.13,SSW,196,0.0,1.0,97,0.00,,,0.07,Wunderground v.1.15,2013-01-12 04:01:00,
2013-01-11 23:06:00,42.7,41.9,30.13,SSW,196,2.0,3.0,97,0.00,,,0.07,Wunderground v.1.15,2013-01-12 04:06:00,
2013-01-11 23:11:00,42.6,41.8,30.12,SSW,196,1.0,1.0,97,0.00,,,0.07,Wunderground v.1.15,2013-01-12 04:11:00,
2013-01-11 23:17:00,42.6,41.8,30.12,SSW,196,1.0,2.0,97,0.00,,,0.07,Wunderground v.1.15,2013-01-12 04:17:00,
2013-01-11 23:22:00,42.7,41.9,30.12,South,178,2.0,4.0,97,0.00,,,0.07,Wunderground v.1.15,2013-01-12 04:22:00,
2013-01-11 23:27:00,42.6,41.8,30.13,South,178,2.0,4.0,97,0.00,,,0.07,Wunderground v.1.15,2013-01-12 04:27:00,
2013-01-11 23:32:00,42.6,41.8,30.13,South,179,0.0,2.0,97,0.00,,,0.07,Wunderground v.1.15,2013-01-12 04:32:00,
2013-01-11 23:37:00,42.6,41.8,30.13,WSW,244,3.0,3.0,97,0.00,,,0.07,Wunderground v.1.15,2013-01-12 04:37:00,
2013-01-11 23:42:00,42.6,41.8,30.13,West,262,1.0,4.0,97,0.00,,,0.07,Wunderground v.1.15,2013-01-12 04:42:00,
2013-01-11 23:47:00,42.5,41.7,30.12,West,263,2.0,4.0,97,0.00,,,0.07,Wunderground v.1.15,2013-01-12 04:47:00,
2013-01-11 23:52:00,42.5,41.7,30.13,West,263,1.0,3.0,97,0.00,,,0.07,Wunderground v.1.15,2013-01-12 04:52:00,
2013-01-11 23:57:00,42.5,41.7,30.13,West,263,0.0,3.0,97,0.00,,,0.07,Wunderground v.1.15,2013-01-12 04:57:00,